HORYU-4

Last updated on Sun Dec 14 2025 00:03:50 GMT+0000 (Coordinated Universal Time)

1 41340U 16012D 25347.19825850 .00071466 00000+0 11908-2 0 9995 2 41340 30.9949 306.8336 0006995 237.7930 122.2041 15.50642466541626
UTC large
Height (km)
Speed (km/s)
/
Latitude / Longitude
Inclination (degrees)
Orbital Period (minutes)
Azimuth
Elevation
Range (km)
Doppler Factor

Next 0 passes for location: London (51.5072 / 0.1276)

Sorry there are no passes over London.